Flag for Australia Weather past 2 weeks in Armidale, New South Wales, Australia

Now
41 °F

Quite cool.


Feels Like: 37 °F
Forecast: 37 / 58 °F
Wind: 6 mph from East

Location: Armidale Airport Aws

Current Time: May 27, 2015 at 2:21:18 AM

Latest Report: May 27, 2015 at 12:00 AM


Visibility: N/A

Pressure: 30.29 "Hg

Humidity: 97%

Dew point: 40 °F

Location of ArmidaleLocation

Historic Weather in Armidale — Graph

°F

Armidale temperature yesterday

Maximum temperature yesterday: 57 °F (at 2:00 PM)
Minimum temperature yesterday: 38 °F (at 3:00 AM)
Average temperature yesterday: 47 °F

Past Weeks' High & Low Weather Summary

 TemperatureHumidityPressure
High66 °F (May 20, 2:00 PM)100% (May 17, 2:00 AM)30.50 "Hg (May 17, 2:00 AM)
Low27 °F (May 14, 6:00 AM)31% (May 14, 3:00 PM)29.95 "Hg (May 22, 5:00 AM)
Average48 °F85%30.25 "Hg
* Reported Midnight between May 11 and May 12 — Midnight between May 26 and May 27, Armidale, Weather by CustomWeather, © 2015

Note: Actual official high and low records may vary slightly from our data, if they occured in-between our weather recording intervals... More about our weather records

Advertising

Armidale weather history for previous 24 hours

 ConditionsComfort  
Time TempWeatherWind HumidityBarometerVisibility
12:00 AM
Wed, May 27
41 °FQuite cool.6 mph97%30.29 "HgN/A
11:00 PM
Tue, May 26
43 °FQuite cool.5 mph91%30.30 "HgN/A
9:00 PM46 °FCool.6 mph85%30.31 "HgN/A
8:00 PM47 °FCool.3 mph80%30.30 "HgN/A
6:00 PM50 °FPassing clouds.3 mph74%30.29 "HgN/A
5:00 PM51 °FCool.6 mph70%30.29 "HgN/A
3:00 PM55 °FOvercast.9 mph60%30.29 "HgN/A
2:00 PM57 °FRefreshingly cool.9 mph57%30.30 "HgN/A
12:00 PM56 °FOvercast.10 mph58%30.34 "HgN/A
11:00 AM56 °FRefreshingly cool.10 mph58%30.37 "HgN/A
9:00 AM52 °FOvercast.5 mph77%30.39 "HgN/A
8:00 AM45 °FQuite cool.5 mph99%30.38 "HgN/A
6:00 AM39 °FPassing clouds.6 mph98%30.36 "HgN/A
5:00 AM39 °FChilly.6 mph98%30.37 "HgN/A
3:00 AM38 °FChilly.6 mph98%30.38 "HgN/A
2:00 AM38 °FChilly.3 mph98%30.39 "HgN/A
Weather by CustomWeather, © 2015

See weather overviewHow to use our weather pages